CZ-6A DEB, 64658

Orbit data source: Space-Track

CZ-6A DEB, 64658 is space debris in LEO originally from a launch on Tue, 06 Aug 2024 UTC launched from the Taiyaun Space Center, China (TSC). Debris objects in space refer to the collection of defunct objects orbiting the Earth. Examples of debris include non-operational satellites, rocket bodies, and fragments generated from explosions, collisions, or faulty payload assembly.

Loading next visibility...
Identifier
64658, 2024-140AEY
Orbit
LEO
Country
Flag of CNCN / PRC
Related business
Manufacturer
SAST
Mission
Spacecraft
Bus & Motor
Unknown
Mass
Unknown
Launch date (UTC)
2024-08-06 (1 year ago)
Launch vehicle
Unknown
Launch site
Taiyaun Space Center, China (TSC)
Object type
Payload
Rocket body
Debris
Shape & HBR
Unknown shape, 0.1 m
Radar Cross Section
Small (<0.1 m²)

Expand to show TLE details & history
Last TLE update: 1 day ago

TLE from 1 day ago
0 CZ-6A DEB
1 64658U 24140AEY 25312.44959277  .00001689  00000-0  82217-3 0  9997
2 64658  89.0029 300.2553 0061433 186.0814 173.9636 14.16789837 54134
Epoch: 2025-11-08T10:47Z
TLE epoch observation values (Epoch: 2025-11-08T10:47:24.815Z)
Latitude
-0.00002°
Longitude
90.52286°
Altitude
883.365 km
Speed
7.388 km/s
True Right ascension
20h 01m 01s
True Declination
0° 00' 00"
Sunlit
Object was in daylight at epoch
Visualization orbit readout
Latitude
Unknown
Longitude
Unknown
Altitude
Unknown
Speed
Unknown
Apparent Right ascension
Unknown
Apparent Declination
Unknown
Sunlit
N/A
Visualization observer readout
Local Sidereal Time
11:23:08
Azimuth
Unknown
Elevation
Unknown
Doppler factor
Unknown
Orbital elements
Apogee altitude
877.487 km
Perigee altitude
788.884 km
Semi-major axis
7,211.322 km
Eccentricity
0.00614
Inclination
89.0029°
RAAN
300.2553°
Arg. of periapsis
186.0814°
True anomaly
174.03707°
Mean anomaly
173.9636°
Eccentric anomaly
174.00039°
Mean motion
3.54422 °/min
Orbital period
101.57 mins
BSTAR
0.00082217
Loading maneuver chart data...
Computing Atmospheric mass density...
Loading historical data...
Loading historical data...
Loading historical data...
Loading historical data...
Loading historical data...
Loading historical data...
Loading historical data...

Documentation

Showing up to 5 results
|